Location: Unspecified
(0.0000°N, 0.0000°E)
Time: 03:13:21
(UTC+00:00)

N. Korean satellite - Pass Details

Date: 01 March 2021
Orbit: 451 x 503 km, 97.2° (Epoch: 24 February)

Event Time Altitude Azimuth Distance (km) Brightness Sun altitude
Rises 04:55:30 0° 14° (NNE) 2,533 10.3 -19.0°
Reaches altitude 10° 04:57:33 10° 16° (NNE) 1,665 9.4 -18.5°
Maximum altitude 05:01:07 73° 101° (E) 517 6.8 -17.7°
Drops below altitude 10° 05:04:46 10° 186° (S) 1,697 9.3 -16.7°
Sets 05:06:52 0° 188° (S) 2,587 10.3 -16.2°
